THY4902 LTFM-LTAI

Flight info

Callsign THY4902
Flight time 1h 0m
Altitude 270
Route IST UG8 YAA UN617 IRGAK UM855 LEMDA UA16 KUMRU
Aircraft A321/M-SDE3/L

Departure

Time 2026-02-17 13:03
Airport İstanbul Airport (LTFM)

Arrival

Time 2026-02-17 14:03
Airport Antalya International Airport (LTAI)
Time Latitude Longitude Altitude Speed Heading
2026-02-17 12:58 41.27979 28.75350 334 ft 14 kts
2026-02-17 12:59 41.28202 28.75349 334 ft 16 kts 359°
2026-02-17 12:59 41.28323 28.75344 334 ft 17 kts 359°
2026-02-17 12:59 41.28449 28.75340 334 ft 18 kts 359°
2026-02-17 12:59 41.28557 28.75338 334 ft 14 kts 360°
2026-02-17 13:00 41.28659 28.75337 334 ft 15 kts 359°
2026-02-17 13:00 41.28770 28.75336 334 ft 16 kts 359°
2026-02-17 13:00 41.28888 28.75334 334 ft 17 kts 359°
2026-02-17 13:00 41.28940 28.75333 334 ft 5 kts
2026-02-17 13:01 41.28962 28.75380 334 ft 7 kts 70°
2026-02-17 13:01 41.28968 28.75451 334 ft 8 kts 90°
2026-02-17 13:01 41.28968 28.75534 334 ft 9 kts 91°
2026-02-17 13:01 41.28951 28.75601 334 ft 7 kts 140°
2026-02-17 13:02 41.28894 28.75620 334 ft 9 kts 174°
2026-02-17 13:02 41.28823 28.75620 334 ft 16 kts 180°
2026-02-17 13:02 41.28439 28.75617 334 ft 92 kts 179°
2026-02-17 13:03 41.26378 28.75699 715 ft 178 kts 179°
2026-02-17 13:03 41.25167 28.75729 1655 ft 173 kts 179°
2026-02-17 13:03 41.24011 28.75754 2600 ft 166 kts 181°
2026-02-17 13:03 41.22813 28.75770 3064 ft 180 kts 181°
2026-02-17 13:04 41.21509 28.75784 3477 ft 198 kts 181°
2026-02-17 13:04 41.20051 28.75808 3851 ft 219 kts 181°
2026-02-17 13:04 41.18474 28.75840 4434 ft 232 kts 181°
2026-02-17 13:04 41.16829 28.75874 5106 ft 241 kts 182°
2026-02-17 13:05 41.15171 28.75912 5951 ft 242 kts 183°
2026-02-17 13:05 41.13475 28.75966 6778 ft 244 kts 181°
2026-02-17 13:05 41.11766 28.76210 7509 ft 251 kts 175°
2026-02-17 13:05 41.10048 28.76684 8179 ft 258 kts 172°
2026-02-17 13:06 41.08277 28.77236 8872 ft 263 kts 172°
2026-02-17 13:06 41.06487 28.77800 9564 ft 267 kts 172°
2026-02-17 13:06 41.04659 28.78375 10187 ft 274 kts 171°
2026-02-17 13:07 41.00704 28.79619 10850 ft 307 kts 171°
2026-02-17 13:07 40.98555 28.80305 11154 ft 324 kts 169°
2026-02-17 13:07 40.96375 28.81256 11426 ft 342 kts 162°
2026-02-17 13:07 40.94160 28.82684 11733 ft 360 kts 154°
2026-02-17 13:08 40.91990 28.84423 12340 ft 365 kts 152°
2026-02-17 13:08 40.89843 28.86202 13024 ft 367 kts 152°
2026-02-17 13:08 40.87676 28.87994 13657 ft 370 kts 152°
2026-02-17 13:08 40.85456 28.89815 14279 ft 374 kts 152°
2026-02-17 13:09 40.83246 28.91627 14850 ft 378 kts 152°
2026-02-17 13:09 40.80991 28.93473 15430 ft 381 kts 152°
2026-02-17 13:09 40.78719 28.95335 15955 ft 385 kts 152°
2026-02-17 13:09 40.76426 28.97209 16491 ft 389 kts 152°
2026-02-17 13:10 40.74126 28.99090 17001 ft 394 kts 152°
2026-02-17 13:10 40.71775 29.01009 17520 ft 397 kts 152°
2026-02-17 13:10 40.69400 29.02946 18063 ft 400 kts 152°
2026-02-17 13:11 40.64640 29.06822 19085 ft 406 kts 152°
2026-02-17 13:11 40.62199 29.08808 19655 ft 408 kts 152°
2026-02-17 13:11 40.59798 29.10762 20135 ft 411 kts 152°
2026-02-17 13:11 40.57331 29.12768 20605 ft 414 kts 152°
2026-02-17 13:12 40.54886 29.14751 21073 ft 417 kts 152°
2026-02-17 13:12 40.52390 29.16774 21569 ft 419 kts 152°
2026-02-17 13:12 40.49905 29.18786 22012 ft 422 kts 152°
2026-02-17 13:12 40.47385 29.20849 22473 ft 425 kts 151°
2026-02-17 13:13 40.44950 29.22981 22915 ft 427 kts 150°
2026-02-17 13:13 40.42467 29.25168 23357 ft 430 kts 150°
2026-02-17 13:13 40.39946 29.27384 23778 ft 432 kts 150°
2026-02-17 13:13 40.37428 29.29600 24154 ft 435 kts 150°
2026-02-17 13:14 40.34949 29.31783 24511 ft 437 kts 150°
2026-02-17 13:14 40.32389 29.34033 24868 ft 440 kts 150°
2026-02-17 13:14 40.29845 29.36269 25201 ft 442 kts 150°
2026-02-17 13:15 40.24690 29.40787 25879 ft 446 kts 150°
2026-02-17 13:15 40.22083 29.43069 26166 ft 449 kts 150°
2026-02-17 13:15 40.19463 29.45359 26433 ft 451 kts 150°
2026-02-17 13:15 40.16867 29.47626 26546 ft 453 kts 150°
2026-02-17 13:16 40.14269 29.49898 26548 ft 452 kts 150°
2026-02-17 13:16 40.11611 29.52215 26561 ft 454 kts 150°
2026-02-17 13:16 40.08988 29.54501 26562 ft 453 kts 150°
2026-02-17 13:16 40.06353 29.56797 26566 ft 453 kts 150°
2026-02-17 13:17 40.03739 29.59072 26562 ft 453 kts 150°
2026-02-17 13:17 40.01105 29.61363 26557 ft 452 kts 150°
2026-02-17 13:17 39.98462 29.63658 26565 ft 453 kts 150°
2026-02-17 13:17 39.95835 29.65940 26567 ft 452 kts 151°
2026-02-17 13:18 39.93214 29.68223 26569 ft 452 kts 151°
2026-02-17 13:18 39.90549 29.70401 26567 ft 450 kts 154°
2026-02-17 13:18 39.87821 29.72367 26563 ft 448 kts 157°
2026-02-17 13:19 39.82158 29.75745 26560 ft 445 kts 161°
2026-02-17 13:19 39.79327 29.77335 26568 ft 445 kts 161°
2026-02-17 13:19 39.76436 29.78961 26570 ft 446 kts 161°
2026-02-17 13:19 39.73596 29.80560 26553 ft 447 kts 161°
2026-02-17 13:20 39.70709 29.82184 26582 ft 448 kts 161°
2026-02-17 13:20 39.67878 29.83776 26581 ft 447 kts 161°
2026-02-17 13:20 39.64977 29.85405 26573 ft 448 kts 161°
2026-02-17 13:20 39.62093 29.87024 26583 ft 448 kts 161°
2026-02-17 13:21 39.59244 29.88624 26581 ft 449 kts 161°
2026-02-17 13:21 39.56377 29.90232 26595 ft 449 kts 161°
2026-02-17 13:21 39.53489 29.91848 26594 ft 448 kts 161°
2026-02-17 13:21 39.50599 29.93469 26579 ft 449 kts 161°
2026-02-17 13:22 39.47720 29.95097 26612 ft 450 kts 161°
2026-02-17 13:22 39.44873 29.96707 26610 ft 449 kts 161°
2026-02-17 13:22 39.41986 29.98343 26604 ft 449 kts 161°
2026-02-17 13:23 39.36217 30.01601 26600 ft 449 kts 161°
2026-02-17 13:23 39.33372 30.03206 26603 ft 450 kts 161°
2026-02-17 13:23 39.30459 30.04848 26619 ft 449 kts 161°
2026-02-17 13:23 39.27594 30.06459 26630 ft 449 kts 161°
2026-02-17 13:24 39.24726 30.08070 26600 ft 448 kts 161°
2026-02-17 13:24 39.21848 30.09685 26592 ft 450 kts 161°
2026-02-17 13:24 39.18965 30.11302 26611 ft 450 kts 161°
2026-02-17 13:24 39.16066 30.12929 26638 ft 450 kts 161°
2026-02-17 13:25 39.13177 30.14545 26638 ft 451 kts 161°
2026-02-17 13:25 39.10299 30.16156 26610 ft 450 kts 161°
2026-02-17 13:25 39.07439 30.17757 26611 ft 451 kts 161°
2026-02-17 13:25 39.04551 30.19372 26621 ft 451 kts 161°
2026-02-17 13:26 39.01644 30.20999 26610 ft 450 kts 161°
2026-02-17 13:26 38.98748 30.22623 26609 ft 451 kts 161°
2026-02-17 13:26 38.95894 30.24219 26633 ft 451 kts 161°
2026-02-17 13:27 38.90079 30.27469 26614 ft 451 kts 160°
2026-02-17 13:27 38.87184 30.29080 26629 ft 450 kts 161°
2026-02-17 13:27 38.84322 30.30666 26611 ft 451 kts 161°
2026-02-17 13:27 38.81418 30.32280 26643 ft 451 kts 161°
2026-02-17 13:28 38.78518 30.33889 26656 ft 451 kts 161°
2026-02-17 13:28 38.75661 30.35478 26658 ft 451 kts 161°
2026-02-17 13:28 38.72744 30.37097 26674 ft 451 kts 161°
2026-02-17 13:28 38.69859 30.38698 26716 ft 450 kts 161°
2026-02-17 13:29 38.67001 30.40279 26700 ft 451 kts 161°
2026-02-17 13:29 38.64054 30.41913 26698 ft 451 kts 161°
2026-02-17 13:29 38.61166 30.43512 26705 ft 451 kts 161°
2026-02-17 13:29 38.58296 30.45101 26697 ft 451 kts 161°
2026-02-17 13:30 38.55412 30.46695 26705 ft 450 kts 161°
2026-02-17 13:30 38.52515 30.48295 26673 ft 450 kts 161°
2026-02-17 13:30 38.49628 30.49889 26680 ft 450 kts 161°
2026-02-17 13:31 38.43881 30.53056 26659 ft 450 kts 161°
2026-02-17 13:31 38.40969 30.54659 26639 ft 451 kts 161°
2026-02-17 13:31 38.38102 30.56237 26655 ft 451 kts 161°
2026-02-17 13:31 38.35187 30.57839 26654 ft 451 kts 161°
2026-02-17 13:32 38.32316 30.59409 26669 ft 450 kts 162°
2026-02-17 13:32 38.29362 30.60762 26677 ft 447 kts 167°
2026-02-17 13:32 38.26375 30.61748 26652 ft 442 kts 172°
2026-02-17 13:32 38.23331 30.62375 26660 ft 439 kts 177°
2026-02-17 13:33 38.20274 30.62803 26645 ft 439 kts 178°
2026-02-17 13:33 38.17257 30.63194 26696 ft 438 kts 179°
2026-02-17 13:33 38.14219 30.63583 26674 ft 439 kts 179°
2026-02-17 13:33 38.11137 30.63981 26684 ft 438 kts 179°
2026-02-17 13:34 38.08115 30.64373 26698 ft 438 kts 178°
2026-02-17 13:34 38.05076 30.64770 26700 ft 439 kts 178°
2026-02-17 13:34 38.02030 30.65173 26686 ft 438 kts 179°
2026-02-17 13:35 37.95895 30.66022 26700 ft 439 kts 179°
2026-02-17 13:35 37.92864 30.66472 26686 ft 439 kts 178°
2026-02-17 13:35 37.89819 30.66919 26695 ft 439 kts 178°
2026-02-17 13:35 37.86763 30.67342 26688 ft 438 kts 179°
2026-02-17 13:36 37.83720 30.67724 26707 ft 438 kts 180°
2026-02-17 13:36 37.80690 30.68092 26694 ft 437 kts 179°
2026-02-17 13:36 37.77681 30.68459 26719 ft 436 kts 179°
2026-02-17 13:36 37.74603 30.68835 26680 ft 437 kts 180°
2026-02-17 13:37 37.71567 30.69209 26682 ft 439 kts 180°
2026-02-17 13:37 37.68512 30.69585 26680 ft 439 kts 180°
2026-02-17 13:37 37.65504 30.70120 26552 ft 441 kts 173°
2026-02-17 13:37 37.62552 30.71231 26146 ft 441 kts 167°
2026-02-17 13:38 37.59675 30.72513 25529 ft 439 kts 166°
2026-02-17 13:38 37.56783 30.73840 24870 ft 437 kts 165°
2026-02-17 13:38 37.53933 30.75138 24311 ft 432 kts 165°
2026-02-17 13:39 37.48356 30.77673 23120 ft 424 kts 165°
2026-02-17 13:39 37.45515 30.78797 22507 ft 416 kts 172°
2026-02-17 13:39 37.42728 30.79502 22005 ft 408 kts 175°
2026-02-17 13:39 37.39912 30.80132 21477 ft 403 kts 175°
2026-02-17 13:40 37.37175 30.80727 21268 ft 391 kts 175°
2026-02-17 13:40 37.34548 30.81305 21024 ft 380 kts 175°
2026-02-17 13:40 37.31957 30.81878 20820 ft 369 kts 175°
2026-02-17 13:40 37.29450 30.82433 20613 ft 359 kts 175°
2026-02-17 13:41 37.26996 30.82984 20188 ft 355 kts 175°
2026-02-17 13:41 37.24577 30.83213 19668 ft 344 kts 191°
2026-02-17 13:41 37.22327 30.82382 19203 ft 332 kts 211°
2026-02-17 13:41 37.20573 30.80586 18717 ft 325 kts 232°
2026-02-17 13:42 37.19534 30.78083 18208 ft 326 kts 253°
2026-02-17 13:42 37.19361 30.75251 17707 ft 332 kts 271°
2026-02-17 13:42 37.19668 30.72380 17216 ft 332 kts 275°
2026-02-17 13:43 37.20466 30.66672 16281 ft 329 kts 276°
2026-02-17 13:43 37.20880 30.63873 15784 ft 327 kts 276°
2026-02-17 13:43 37.21303 30.61052 15347 ft 325 kts 276°
2026-02-17 13:43 37.21714 30.58291 14911 ft 323 kts 276°
2026-02-17 13:44 37.22125 30.55516 14451 ft 321 kts 276°
2026-02-17 13:44 37.22532 30.52768 13953 ft 320 kts 276°
2026-02-17 13:44 37.22945 30.49983 13213 ft 327 kts 276°
2026-02-17 13:44 37.23362 30.47164 12345 ft 338 kts 276°
2026-02-17 13:45 37.23869 30.44239 11421 ft 353 kts 284°
2026-02-17 13:45 37.25113 30.41505 10671 ft 369 kts 306°
2026-02-17 13:45 37.27128 30.39516 10315 ft 372 kts 328°
2026-02-17 13:45 37.29598 30.38570 10094 ft 370 kts 351°
2026-02-17 13:46 37.32170 30.38653 9986 ft 361 kts
2026-02-17 13:46 37.34620 30.39038 9969 ft 346 kts
2026-02-17 13:46 37.36862 30.39821 9937 ft 332 kts 26°
2026-02-17 13:47 37.40608 30.42840 9956 ft 300 kts 36°
2026-02-17 13:47 37.42307 30.44338 9833 ft 296 kts 36°
2026-02-17 13:47 37.43969 30.45813 9643 ft 288 kts 36°
2026-02-17 13:47 37.45604 30.47259 9461 ft 280 kts 36°
2026-02-17 13:48 37.47184 30.48650 9278 ft 276 kts 36°
2026-02-17 13:48 37.48748 30.50007 9003 ft 273 kts 36°
2026-02-17 13:48 37.50342 30.51375 8982 ft 273 kts 36°
2026-02-17 13:48 37.51858 30.52786 8964 ft 271 kts 49°
2026-02-17 13:49 37.52837 30.54773 8956 ft 258 kts 82°
2026-02-17 13:49 37.52906 30.56922 8971 ft 243 kts 113°
2026-02-17 13:49 37.52199 30.58798 9001 ft 234 kts 131°
2026-02-17 13:49 37.51243 30.60452 8979 ft 234 kts 134°
2026-02-17 13:50 37.50240 30.62061 8970 ft 233 kts 135°
2026-02-17 13:50 37.49226 30.63668 8967 ft 234 kts 136°
2026-02-17 13:50 37.48151 30.65230 8971 ft 230 kts 142°
2026-02-17 13:51 37.45787 30.67930 8974 ft 230 kts 146°
2026-02-17 13:51 37.44584 30.69261 8980 ft 230 kts 146°
2026-02-17 13:51 37.43368 30.70590 8967 ft 230 kts 146°
2026-02-17 13:51 37.42117 30.71860 8964 ft 226 kts 152°
2026-02-17 13:52 37.40802 30.72915 8975 ft 224 kts 155°
2026-02-17 13:52 37.39451 30.73928 8971 ft 223 kts 155°
2026-02-17 13:52 37.38088 30.74937 8552 ft 231 kts 155°
2026-02-17 13:52 37.36676 30.75953 7909 ft 240 kts 155°
2026-02-17 13:53 37.35226 30.76966 7392 ft 237 kts 155°
2026-02-17 13:53 37.33799 30.77944 7064 ft 225 kts 155°
2026-02-17 13:53 37.32467 30.78860 7140 ft 211 kts 155°
2026-02-17 13:53 37.31231 30.79717 7033 ft 195 kts 155°
2026-02-17 13:54 37.30039 30.80548 6777 ft 194 kts 155°
2026-02-17 13:54 37.28852 30.81367 6316 ft 196 kts 155°
2026-02-17 13:54 37.27650 30.82183 5831 ft 197 kts 156°
2026-02-17 13:55 37.25157 30.83653 5061 ft 192 kts 159°
2026-02-17 13:55 37.23973 30.84341 5045 ft 183 kts 158°
2026-02-17 13:55 37.22770 30.84780 4986 ft 181 kts 182°
2026-02-17 13:55 37.21546 30.84331 5008 ft 182 kts 200°
2026-02-17 13:56 37.20350 30.83763 4986 ft 185 kts 195°
2026-02-17 13:56 37.19107 30.83377 4810 ft 177 kts 189°
2026-02-17 13:56 37.17932 30.83143 4642 ft 167 kts 186°
2026-02-17 13:56 37.16773 30.82954 4511 ft 166 kts 186°
2026-02-17 13:57 37.15625 30.82782 4508 ft 166 kts 185°
2026-02-17 13:57 37.14471 30.82614 4506 ft 167 kts 185°
2026-02-17 13:57 37.13306 30.82449 4356 ft 166 kts 185°
2026-02-17 13:57 37.12158 30.82289 4156 ft 166 kts 185°
2026-02-17 13:58 37.11007 30.82131 3938 ft 164 kts 185°
2026-02-17 13:58 37.09857 30.81974 3719 ft 163 kts 185°
2026-02-17 13:58 37.08733 30.81821 3502 ft 162 kts 184°
2026-02-17 13:59 37.06466 30.81512 3068 ft 162 kts 184°
2026-02-17 13:59 37.05346 30.81358 2857 ft 160 kts 184°
2026-02-17 13:59 37.04252 30.81209 2677 ft 150 kts 185°
2026-02-17 13:59 37.03255 30.81071 2447 ft 138 kts 183°
2026-02-17 14:00 37.02290 30.80940 2267 ft 139 kts 184°
2026-02-17 14:00 37.01321 30.80810 2084 ft 140 kts 183°
2026-02-17 14:00 37.00347 30.80677 1896 ft 140 kts 183°
2026-02-17 14:00 36.99365 30.80542 1709 ft 141 kts 182°
2026-02-17 14:01 36.98392 30.80410 1528 ft 140 kts 184°
2026-02-17 14:01 36.97407 30.80275 1341 ft 140 kts 184°
2026-02-17 14:01 36.96440 30.80142 1155 ft 140 kts 184°
2026-02-17 14:01 36.95473 30.80009 969 ft 139 kts 184°
2026-02-17 14:02 36.94502 30.79876 782 ft 140 kts 183°
2026-02-17 14:02 36.93526 30.79742 596 ft 140 kts 182°
2026-02-17 14:02 36.92552 30.79608 411 ft 139 kts 183°
2026-02-17 14:03 36.90681 30.79359 176 ft 94 kts 185°
2026-02-17 14:03 36.90447 30.79326 176 ft 0 kts 186°
2026-02-17 14:03 36.90446 30.79326 176 ft 0 kts 186°
2026-02-17 14:03 36.90423 30.79322 176 ft 5 kts 186°
2026-02-17 14:04 36.90384 30.79333 176 ft 6 kts 124°
2026-02-17 14:04 36.90387 30.79382 176 ft 5 kts 59°
2026-02-17 14:04 36.90413 30.79428 176 ft 7 kts 52°
2026-02-17 14:04 36.90438 30.79488 176 ft 8 kts 81°
2026-02-17 14:05 36.90458 30.79536 176 ft 6 kts
2026-02-17 14:05 36.90513 30.79541 176 ft 9 kts
2026-02-17 14:05 36.90595 30.79556 174 ft 13 kts 10°
2026-02-17 14:05 36.90703 30.79577 172 ft 17 kts
2026-02-17 14:06 36.90811 30.79592 170 ft 16 kts
2026-02-17 14:06 36.90891 30.79639 168 ft 11 kts 73°
2026-02-17 14:06 36.90896 30.79735 168 ft 11 kts 95°
2026-02-17 14:07 36.90879 30.79905 170 ft 5 kts 74°
2026-02-17 14:07 36.90910 30.79939 170 ft 7 kts 24°
2026-02-17 14:07 36.90947 30.79966 170 ft 6 kts 50°
2026-02-17 14:07 36.90964 30.80020 170 ft 6 kts 88°
2026-02-17 14:08 36.90962 30.80057 172 ft 0 kts 96°